Location: ??????
(30.5519°N, 47.7720°E)
Time: 23:01:36
(UTC+00:00)

Cosmos 158 Rocket - Visible Passes

Search period start: 05 May 2021 00:00
Search period end: 15 May 2021 00:00
Orbit: 699 x 792 km, 74.0° (Epoch: 05 May)

Date Brightness Start Highest point End Pass type
(mag) Time Alt. Az. Time Alt. Az. Time Alt. Az.
05 May 6.7 19:24:21 10° N 19:24:42 12° NNE 19:24:42 12° NNE visible
07 May 6.5 19:37:52 10° N 19:38:43 15° N 19:38:43 15° N visible
08 May 6.3 18:54:40 10° N 18:55:52 16° NNE 18:55:52 16° NNE visible
09 May 6.3 18:12:27 10° NNE 18:13:02 11° NE 18:13:02 11° NE visible
09 May 6.6 19:52:07 10° NNW 19:52:50 14° NNW 19:52:50 14° NNW visible
10 May 6.0 19:08:17 10° NNW 19:10:01 22° N 19:10:01 22° N visible
11 May 5.7 18:25:01 10° N 18:27:15 23° NNE 18:27:15 23° NNE visible
12 May 5.9 17:42:35 10° NNE 17:44:29 15° NE 17:44:29 15° NE visible
12 May 6.2 19:22:38 10° NNW 19:24:17 20° NW 19:24:17 20° NW visible
13 May 5.2 18:38:43 10° NNW 18:41:34 35° NNW 18:41:34 35° NNW visible
14 May 4.9 17:55:22 10° N 17:58:52 33° NE 17:58:52 33° NE visible
14 May 6.6 19:38:04 10° WNW 19:38:41 12° WNW 19:38:41 12° WNW visible
